Torna al catalogo

CHINASAT-3A

AttivoComunicazioniGEO
NORAD 60179·PAYLOAD·🇨🇳 China

Lanciato Jun 29, 2024 da Wenchang Space Launch Site

Loading…

TLE

AggiornatoSource: Space-Track

Epoca: Sep 14, 2026, 22:50 UTC

1 60179U 24122A   26257.95164088 -.00000321  00000-0  00000+0 0  9993
2 60179   0.0180 344.4120 0002464 220.3167 233.3206  1.00275438  8208

Traccia CHINASAT-3A in tempo reale con AllMySat

Download on the App Store